Location: Newark
(46.1292°N, 1.0086°W)
Time: 15:29:46
(UTC+00:00)

Vanguard 3 - Pass Details

Date: 21 November 2019
Orbit: 508 x 3263 km, 33.3° (Epoch: 11 December)

Event Time Altitude Azimuth Distance (km) Brightness Sun altitude
Rises 09:52:26 0° 177° (S) 6,193 12.8 18.8°
Reaches altitude 10° 09:59:35 10° 155° (SSE) 5,683 13.9 19.4°
Maximum altitude 10:07:18 14° 129° (SE) 5,665 12.9 20.0°
Drops below altitude 10° 10:15:32 10° 104° (ESE) 6,199 12.3 20.6°
Sets 10:23:59 0° 85° (E) 7,152 12.2 21.2°
